Location: Newark
(9.4667°S, 159.8167°E)
Time: 22:48:14
(UTC+00:00)

Vanguard 2 - All Passes

Search period start: 11 November 2019 00:00
Search period end: 21 November 2019 00:00
Orbit: 554 x 2937 km, 32.9° (Epoch: 11 November)

Date Brightness Start Highest point End Pass type
(mag) Time Alt. Az. Time Alt. Az. Time Alt. Az.
11 Nov - 06:51:17 10° NNE 06:55:02 15° NE 06:59:41 10° ENE daylight
11 Nov - 08:55:21 10° NW 09:03:32 73° NE 09:17:31 10° ESE visible
11 Nov - 11:04:36 10° W 11:15:25 48° SSW 11:31:27 10° SE visible
11 Nov - 13:17:57 10° WSW 13:31:00 31° S 13:46:02 10° SE visible
11 Nov - 15:32:55 10° SW 15:48:18 34° S 16:02:02 10° ESE visible
11 Nov - 17:46:40 10° SW 18:03:41 57° SSE 18:15:22 10° ENE visible
11 Nov - 20:00:51 10° WSW 20:15:24 61° NW 20:24:14 10° NE daylight
11 Nov - 22:21:05 10° WNW 22:24:09 12° NW 22:26:51 10° NNW daylight
12 Nov - 07:07:19 10° N 07:12:38 24° NE 07:20:17 10° E daylight
12 Nov - 09:13:12 10° WNW 09:21:35 84° SSW 09:35:58 10° SE visible
12 Nov - 11:23:26 10° W 11:34:20 40° SSW 11:49:47 10° SE visible
12 Nov - 13:37:17 10° WSW 13:50:31 30° S 14:05:14 10° SE visible
12 Nov - 15:51:32 10° SW 16:07:37 38° SSE 16:21:26 10° E visible
12 Nov - 18:04:53 10° SW 18:22:15 71° SSE 18:33:48 10° ENE visible
12 Nov - 20:19:48 10° WSW 20:33:10 44° NW 20:41:37 10° NNE daylight
13 Nov - 07:24:12 10° NNW 07:30:15 37° NE 07:39:47 10° ESE visible
13 Nov - 09:31:20 10° WNW 09:39:52 64° SSW 09:54:14 10° SE visible
13 Nov - 11:42:31 10° WSW 11:53:26 34° SSW 12:08:18 10° SE visible
13 Nov - 13:56:27 10° SW 14:10:04 30° S 14:24:44 10° ESE visible
13 Nov - 16:09:56 10° SW 16:26:44 44° SSE 16:40:39 10° E visible
13 Nov - 18:23:11 10° SW 18:40:35 87° SE 18:51:57 10° ENE visible
13 Nov - 20:39:16 10° W 20:50:52 31° NW 20:58:42 10° NNE daylight
14 Nov - 07:41:32 10° NW 07:47:55 57° NE 07:58:43 10° ESE visible
14 Nov - 09:49:44 10° W 09:58:24 50° SSW 10:12:26 10° SE visible
14 Nov - 12:01:42 10° WSW 12:12:42 30° S 12:27:06 10° SE visible
14 Nov - 14:15:20 10° SW 14:29:34 32° S 14:44:23 10° ESE visible
14 Nov - 16:28:11 10° SW 16:45:38 53° SSE 16:59:35 10° E visible
14 Nov - 18:41:39 10° WSW 18:58:42 75° NW 19:09:50 10° NE daylight
14 Nov - 20:59:30 10° W 21:08:34 21° NW 21:15:16 10° N daylight
15 Nov - 05:55:13 10° NNE 05:57:48 13° NE 06:00:49 10° ENE daylight
15 Nov - 07:59:12 10° NW 08:05:47 83° NE 08:17:15 10° ESE visible
15 Nov - 10:08:23 10° W 10:17:08 40° SSW 10:30:40 10° SE visible
15 Nov - 12:20:54 10° SW 12:32:07 29° S 12:46:15 10° SE visible
15 Nov - 14:33:56 10° SW 14:48:56 36° SSE 15:04:03 10° ESE visible
15 Nov - 16:46:22 10° SW 17:04:20 64° SSE 17:18:15 10° ENE visible
15 Nov - 19:00:21 10° WSW 19:16:39 57° NW 19:27:27 10° NE daylight
15 Nov - 21:21:14 10° WNW 21:26:25 13° NW 21:30:47 10° NNW daylight
16 Nov - 06:11:08 10° N 06:15:23 23° NE 06:21:17 10° E daylight
16 Nov - 08:17:09 10° WNW 08:23:53 71° SSW 08:35:33 10° SE visible
16 Nov - 10:27:17 10° WSW 10:36:04 33° SSW 10:49:02 10° SE visible
16 Nov - 12:39:58 10° SW 12:51:33 28° S 13:05:46 10° ESE visible
16 Nov - 14:52:19 10° SW 15:08:06 41° SSE 15:23:33 10° E visible
16 Nov - 17:04:34 10° SW 17:22:49 78° SSE 17:36:37 10° ENE visible
16 Nov - 19:19:26 10° WSW 19:34:29 43° NW 19:44:47 10° NNE daylight
17 Nov - 06:28:05 10° NNW 06:32:59 38° NE 06:40:32 10° ESE daylight
17 Nov - 08:35:24 10° W 08:42:13 51° SSW 08:53:42 10° SE visible
17 Nov - 10:46:21 10° WSW 10:55:09 28° S 11:07:38 10° SE visible
17 Nov - 12:58:48 10° SW 13:11:00 30° S 13:25:33 10° ESE visible
17 Nov - 15:10:31 10° SW 15:27:04 49° SSE 15:42:49 10° E visible
17 Nov - 17:22:52 10° WSW 17:41:05 86° NW 17:54:42 10° NE visible
17 Nov - 19:39:03 10° W 19:52:18 31° NW 20:01:50 10° NNE daylight
18 Nov - 06:45:31 10° NW 06:50:42 63° NE 06:59:14 10° ESE daylight
18 Nov - 08:53:55 10° W 09:00:47 39° SSW 09:11:47 10° SE visible
18 Nov - 11:05:27 10° SW 11:14:23 26° S 11:26:35 10° SE visible
18 Nov - 13:17:21 10° SW 13:30:19 32° SSE 13:45:27 10° ESE visible
18 Nov - 15:28:37 10° SW 15:45:49 58° SSE 16:01:45 10° ENE visible
18 Nov - 17:41:21 10° WSW 17:59:13 69° NW 18:12:32 10° NE visible
18 Nov - 19:59:29 10° W 20:10:11 22° NW 20:18:24 10° N daylight
19 Nov - 04:58:59 10° NNE 05:00:49 12° NE 05:02:52 10° ENE daylight
19 Nov - 07:03:18 10° WNW 07:08:38 83° SSW 07:17:34 10° SE daylight
19 Nov - 09:12:42 10° WSW 09:19:32 30° SSW 09:29:56 10° SE visible
19 Nov - 11:24:27 10° SW 11:33:41 25° S 11:45:57 10° SE visible
19 Nov - 13:35:40 10° SW 13:49:28 37° SSE 14:05:17 10° E visible
19 Nov - 15:46:43 10° SW 16:04:23 70° SSE 16:20:23 10° ENE visible
19 Nov - 18:00:07 10° WSW 18:17:14 54° NW 18:30:06 10° NE visible
19 Nov - 20:21:17 10° WNW 20:28:16 15° NW 20:34:07 10° NNW daylight
20 Nov - 05:14:55 10° N 05:18:29 23° NE 05:23:06 10° E daylight
20 Nov - 07:21:24 10° WNW 07:26:48 54° SSW 07:35:41 10° SE daylight
20 Nov - 09:31:42 10° WSW 09:38:27 25° S 09:48:14 10° SE visible
20 Nov - 11:43:14 10° SW 11:52:59 26° S 12:05:44 10° ESE visible
20 Nov - 13:53:48 10° SW 14:08:25 43° SSE 14:24:53 10° E visible
20 Nov - 16:04:52 10° SW 16:22:47 85° SE 16:38:43 10° ENE visible
20 Nov - 18:19:16 10° WSW 18:35:11 41° NW 18:47:24 10° NNE visible
